{"data":{"norad_id":64037,"epoch":"2026-09-20T14:25:59.609568Z","epoch_age_seconds":134795,"freshness":"FRESH","line1":"1 64037U 25102R   26263.60138437  .00010968  00000+0  38532-3 0  9998","line2":"2 64037  70.0012 340.7895 0003621 270.6487  89.4273 15.29586838 75217","mean_motion":15.29586838,"eccentricity":0.0003621,"inclination_deg":70.0012,"raan_deg":340.7895,"arg_perigee_deg":270.6487,"mean_anomaly_deg":89.4273,"bstar":0.00038532,"rev_number":7521,"period_min":94.143069502537,"perigee_km":474.56421025321,"apogee_km":479.52873412377,"semimajor_km":6855.1834721885,"source":"CELESTRAK","updated_at":"2026-09-21T09:00:35.188910Z"}}